Find Starlink 4331

NORAD ID: 53046 Int'l Des: 2022-077 Owner: SPXS Country: US Constellation: starlink operational
LEOCIRCULARRETROGRADESSO

Live Position

Loading 3D Globe...

About Starlink 4331

Description loading...

Upcoming Passes

Passes for default location (London). Set your location on the main map for personalized predictions.

Altitude History

Loading altitude history...

Two-Line Element Set

1 53046U 22077D 26124.51524164 -.00003654 00000-0 -24914-3 0 9992
2 53046 97.5352 306.2623 0002299 86.3496 273.7994 15.05663996209395
Epoch: May 4, 2026 • Age: 10 hours

Current Status

Altitude 558.4 km
Velocity 7.59 km/s
Sub-Earth Point 60.66°N, 97.21°E
Launch Date Jul 11, 2022
Age 3.8 years
Type internet

Technical Details

Classification Payload
Mass 297.00 kg
Dry Mass 275.00 kg
Total Mass 297.00 kg
Length 0.20 m
Diameter 2.80 m
Span 9.00 m
Shape Box + pan
Manufacturer SPXS
Bus Type Starlink
Phase Status In Orbit
Owner/State SPXS/US

Most Searched